Skip Page Navigation
NASA JPL Caltech
NASA Logo - Jet Propulsion Laboratory + View the NASA Portal
+ Center for Near-Earth Object Studies
JPL Home Earth Solar System Stars & Galaxies Technology
JPL Solar System Dynamics
BODIES ORBITS EPHEMERIDES TOOLS PHYSICAL DATA DISCOVERY FAQ SITE MAP
JPL Small-Body Database Browser
Search: [ help ]  
2682 Soromundi (1979 MF4)
Classification: Main-belt Asteroid          SPK-ID: 2002682
Ephemeris | Orbit Diagram | Orbital Elements | Mission Design | Physical Parameters | Discovery Circumstances | Close-Approach Data ]

[ show orbit diagram ]
Orbital Elements at Epoch 2459000.5 (2020-May-31.0) TDB
Reference: JPL 30 (heliocentric ecliptic J2000)
 Element Value Uncertainty (1-sigma)   Units 
e .1703036366953067 2.8062e-08  
a 2.270691264742872 6.423e-09 au
q 1.883984284544895 6.3579e-08 au
i 5.495421959790368 3.1418e-06 deg
node 127.2564787344439 3.7352e-05 deg
peri 183.149169759791 3.8896e-05 deg
M 331.6738750404089 1.2062e-05 deg
tp 2459098.837740806364
(2020-Sep-06.33774081)
4.1983e-05 TDB
period 1249.785727514561
3.42
5.3028e-06
1.452e-08
d
yr
n .2880493768447246 1.2222e-09 deg/d
Q 2.657398244940849 7.5168e-09 au
  Orbit Determination Parameters
   # obs. used (total)      2727  
   data-arc span      17542 days (48.03 yr)  
   first obs. used      1972-06-06  
   last obs. used      2020-06-16  
   planetary ephem.      DE431  
   SB-pert. ephem.      SB431-N16  
   condition code      0  
   norm. resid. RMS      .43225  
   source      ORB  
   producer      Otto Matic  
   solution date      2020-Jun-23 15:48:24  

Additional Information
 Earth MOID = .869537 au 
 Jupiter MOID = 2.59808 au 
 T_jup = 3.587 
[ show covariance matrix ]

Ephemeris | Orbit Diagram | Orbital Elements | Mission Design | Physical Parameters | Discovery Circumstances | Close-Approach Data ]

Physical Parameter Table
Parameter Symbol Value Units Sigma Reference Notes
absolute magnitude H 13.3   n/a MPO324331  
diameter diameter 5.344 km 0.040 urn:nasa:pds:neowise_diameters_albedos::2.0[mainbelt] (http://adsabs.harvard.edu/abs/2014ApJ...791..121M)  
rotation period rot_per 9.385 h n/a LCDB (Rev. 2019-August); Warner et al., 2009 Result based on less than full coverage, so that the period may be wrong by 30 percent or so.
Published Reference List:
[Waszczak, A.; Chang, C.-K.; Ofeck, E.O.; Laher, F.; et al. (2015) Astron. J. 150, A75.]
geometric albedo albedo 0.199   0.019 urn:nasa:pds:neowise_diameters_albedos::2.0[mainbelt] (http://adsabs.harvard.edu/abs/2014ApJ...791..121M)  

2682 Soromundi (1979 MF4)          Discovered 1979-Jun-25 by Helin, E. F. and Bus, S. J. at Siding Spring
Reference: DISCOVERY.DBLast Updated: 2003-08-29

[ show close-approach data ]
Alternate Designations
 1979 MF4 = 1972 LO 
Ephemeris | Orbit Diagram | Orbital Elements | Mission Design | Physical Parameters | Discovery Circumstances | Close-Approach Data ]
ABOUT SSD CREDITS/AWARDS PRIVACY/COPYRIGHT GLOSSARY LINKS
FirstGov 2020-Oct-25 05:23 UT
(server date/time)  
NASA Home Page
Site Manager:   Ryan S. Park
Webmaster  Alan B. Chamberlin